Overview Statistics Trail Chart Weather Telemetry Raw packets
 

This is the latest recevied weather packets stored in our database for station/object Aldingen. If no packets are shown the sender has not sent any weather packets the latest 10 day(s).

<< 1 2 3 4 5 >>
Time Temp. Humidity Pressure Rain* Wind** Luminosity Snow
1788555731 22.78° C 59% 1015.1 hPa 0 mm - - -
1788553931 23.33° C 59% 1015.2 hPa 0 mm - - -
1788552130 23.33° C 58% 1015.1 hPa 0 mm - - -
1788550330 23.33° C 58% 1015.1 hPa 0 mm - - -
1788548531 24.44° C 54% 1014.8 hPa 0 mm - - -
1788546731 25° C 52% 1014.5 hPa 0 mm - - -
1788544931 25.56° C 50% 1014.2 hPa 0 mm - - -
1788543130 26.67° C 47% 1014 hPa 0 mm - - -
1788541344 27.78° C 45% 1013.9 hPa 0 mm - - -
1788539531 28.33° C 41% 1013.8 hPa 0 mm - - -
1788537731 28.89° C 38% 1013.8 hPa 0 mm - - -
1788535931 29.44° C 37% 1013.9 hPa 0 mm - - -
1788534131 29.44° C 35% 1014 hPa 0 mm - - -
1788532330 30° C 33% 1014.1 hPa 0 mm - - -
1788530531 30° C 35% 1014.6 hPa 0 mm - - -
1788528730 29.44° C 35% 1014.7 hPa 0 mm - - -
1788526930 29.44° C 36% 1015 hPa 0 mm - - -
1788525130 29.44° C 35% 1015.3 hPa 0 mm - - -
1788523331 28.33° C 41% 1015.5 hPa 0 mm - - -
1788521530 27.22° C 44% 1016 hPa 0 mm - - -
1788519731 27.22° C 44% 1016.3 hPa 0 mm - - -
1788517930 26.67° C 46% 1016.9 hPa 0 mm - - -
1788516130 25.56° C 48% 1017.2 hPa 0 mm - - -
1788514330 25° C 50% 1017.7 hPa 0 mm - - -
1788512530 23.89° C 49% 1018.1 hPa 0 mm - - -

* Rain since midnight (hover to see other rain measurements)
** Current wind speed in m/s (hover to see current wind gust speed)